| time (UTC) | temp C | wind direction | speed KPH | gust KPH | rain 1hr cm | rain 24hr cm | rain mn cm | humidity % | barometer mb |
| 20260508024535 | 11 | 0 | 1.6 | 8.0 | 0.00 | 0.00 | 0.00 | 85 | 1014.3 |
| 20260508023031 | 11 | 63 | 3.2 | 6.4 | 0.00 | 0.00 | 0.00 | 84 | 1014.3 |
| 20260508021530 | 11 | 108 | 0.0 | 4.8 | 0.00 | 0.00 | 0.00 | 83 | 1014.4 |
| 20260508020030 | 11 | 0 | 1.6 | 3.2 | 0.00 | 0.00 | 0.00 | 81 | 1014.5 |
| 20260508014532 | 11 | 0 | 0.0 | 1.6 | 0.00 | 0.00 | 0.00 | 81 | 1014.4 |
| 20260508013029 | 11 | 0 | 0.0 | 0.0 | 0.00 | 0.00 | 0.00 | 81 | 1014.4 |
| 20260508011540 | 11 | 151 | 0.0 | 1.6 | 0.00 | 0.00 | 0.00 | 80 | 1014.5 |
| 20260508010032 | 11 | 0 | 0.0 | 4.8 | 0.00 | 0.00 | 0.00 | 79 | 1014.5 |
| 20260508004532 | 11 | 160 | 0.0 | 9.7 | 0.00 | 0.00 | 0.00 | 79 | 1014.6 |
| 20260508003032 | 11 | 120 | 1.6 | 4.8 | 0.00 | 0.00 | 0.00 | 86 | 1014.7 |
| 20260508001536 | 11 | 167 | 0.0 | 1.6 | 0.00 | 0.00 | 0.00 | 86 | 1014.6 |
| 20260508000034 | 11 | 191 | 0.0 | 0.0 | 0.00 | 0.00 | 0.00 | 86 | 1014.6 |
| 20260507234531 | 11 | 166 | 0.0 | 1.6 | 0.00 | 0.00 | 0.00 | 86 | 1014.8 |
| 20260507233033 | 11 | 0 | 0.0 | 0.0 | 0.00 | 0.00 | 0.00 | 86 | 1014.8 |
| 20260507231539 | 11 | 0 | 0.0 | 0.0 | 0.00 | 0.00 | 0.00 | 86 | 1014.9 |
| 20260507230032 | 11 | 0 | 0.0 | 1.6 | 0.00 | 0.00 | 0.00 | 87 | 1015.0 |
| 20260507224536 | 11 | 0 | 0.0 | 1.6 | 0.00 | 0.00 | 0.00 | 88 | 1014.9 |
| 20260507223030 | 11 | 0 | 0.0 | 0.0 | 0.00 | 0.00 | 0.00 | 88 | 1014.8 |
| 20260507221532 | 11 | 0 | 0.0 | 0.0 | 0.00 | 0.00 | 0.00 | 87 | 1014.7 |
| 20260507220029 | 11 | 207 | 0.0 | 1.6 | 0.00 | 0.00 | 0.00 | 86 | 1014.7 |
| 20260507214532 | 11 | 188 | 0.0 | 1.6 | 0.00 | 0.00 | 0.00 | 86 | 1014.8 |
| 20260507213030 | 11 | 179 | 0.0 | 1.6 | 0.00 | 0.00 | 0.00 | 85 | 1014.8 |
| 20260507211532 | 11 | 0 | 0.0 | 0.0 | 0.00 | 0.00 | 0.00 | 85 | 1014.8 |
| 20260507210030 | 11 | 0 | 0.0 | 1.6 | 0.00 | 0.00 | 0.00 | 84 | 1014.7 |
| 20260507204530 | 11 | 0 | 0.0 | 0.0 | 0.00 | 0.00 | 0.00 | 83 | 1014.6 |
| 20260507203033 | 11 | 0 | 0.0 | 0.0 | 0.00 | 0.00 | 0.00 | 82 | 1014.4 |
| 20260507201537 | 11 | 168 | 0.0 | 3.2 | 0.00 | 0.00 | 0.00 | 81 | 1014.3 |
| 20260507200043 | 12 | 0 | 0.0 | 0.0 | 0.00 | 0.00 | 0.00 | 81 | 1014.2 |
| 20260507194530 | 12 | 202 | 0.0 | 1.6 | 0.00 | 0.00 | 0.00 | 80 | 1014.1 |
| 20260507193034 | 12 | 0 | 0.0 | 0.0 | 0.00 | 0.00 | 0.00 | 79 | 1014.0 |
| 20260507191532 | 12 | 0 | 0.0 | 1.6 | 0.00 | 0.00 | 0.00 | 79 | 1014.1 |
| 20260507190032 | 12 | 0 | 0.0 | 1.6 | 0.00 | 0.00 | 0.00 | 78 | 1013.9 |
| 20260507184531 | 12 | 113 | 0.0 | 1.6 | 0.00 | 0.00 | 0.00 | 76 | 1014.0 |
| 20260507183038 | 12 | 0 | 0.0 | 1.6 | 0.00 | 0.00 | 0.00 | 76 | 1014.0 |
| 20260507181530 | 13 | 78 | 0.0 | 1.6 | 0.00 | 0.00 | 0.00 | 74 | 1014.0 |
| 20260507180038 | 13 | 101 | 0.0 | 3.2 | 0.00 | 0.00 | 0.00 | 73 | 1014.1 |
| 20260507174536 | 13 | 49 | 0.0 | 3.2 | 0.00 | 0.00 | 0.00 | 75 | 1014.0 |
| 20260507173034 | 13 | 0 | 3.2 | 8.0 | 0.00 | 0.00 | 0.00 | 72 | 1014.2 |
| 20260507171530 | 13 | 93 | 1.6 | 6.4 | 0.00 | 0.00 | 0.00 | 73 | 1014.1 |
| 20260507170030 | 13 | 0 | 0.0 | 9.7 | 0.00 | 0.00 | 0.00 | 76 | 1014.2 |
| 20260507164538 | 13 | 156 | 1.6 | 9.7 | 0.00 | 0.00 | 0.00 | 75 | 1014.2 |
| 20260507163029 | 14 | 123 | 0.0 | 4.8 | 0.00 | 0.00 | 0.00 | 74 | 1014.2 |
| 20260507161539 | 14 | 0 | 0.0 | 4.8 | 0.00 | 0.00 | 0.00 | 73 | 1014.1 |
| 20260507160035 | 15 | 169 | 0.0 | 6.4 | 0.00 | 0.00 | 0.00 | 73 | 1014.1 |
| 20260507154536 | 15 | 73 | 1.6 | 6.4 | 0.00 | 0.00 | 0.00 | 69 | 1014.1 |
| 20260507153029 | 15 | 91 | 1.6 | 8.0 | 0.00 | 0.00 | 0.00 | 67 | 1014.2 |
| 20260507151539 | 14 | 169 | 0.0 | 6.4 | 0.00 | 0.00 | 0.00 | 68 | 1014.2 |
| 20260507150032 | 14 | 127 | 3.2 | 9.7 | 0.00 | 0.00 | 0.00 | 69 | 1014.2 |
| 20260507144534 | 14 | 143 | 0.0 | 4.8 | 0.00 | 0.00 | 0.00 | 65 | 1014.2 |
| 20260507143030 | 14 | 0 | 0.0 | 6.4 | 0.00 | 0.00 | 0.00 | 66 | 1014.2 |
| 20260507141530 | 15 | 319 | 1.6 | 8.0 | 0.00 | 0.00 | 0.00 | 64 | 1014.3 |
| 20260507140029 | 15 | 131 | 0.0 | 8.0 | 0.00 | 0.00 | 0.00 | 68 | 1014.5 |
| 20260507134542 | 15 | 0 | 0.0 | 3.2 | 0.00 | 0.00 | 0.00 | 69 | 1014.6 |
| 20260507133030 | 14 | 55 | 1.6 | 4.8 | 0.00 | 0.00 | 0.00 | 69 | 1014.5 |
| 20260507131536 | 15 | 0 | 0.0 | 3.2 | 0.00 | 0.00 | 0.00 | 69 | 1014.7 |
| 20260507130029 | 15 | 71 | 0.0 | 4.8 | 0.00 | 0.00 | 0.00 | 70 | 1014.8 |
| 20260507124528 | 14 | 47 | 0.0 | 4.8 | 0.00 | 0.00 | 0.00 | 71 | 1014.8 |
| 20260507123030 | 14 | 0 | 1.6 | 9.7 | 0.00 | 0.00 | 0.00 | 71 | 1014.7 |
| 20260507121530 | 14 | 0 | 1.6 | 8.0 | 0.00 | 0.00 | 0.00 | 70 | 1014.7 |
| 20260507120029 | 15 | 0 | 0.0 | 4.8 | 0.00 | 0.00 | 0.00 | 70 | 1014.7 |
| 20260507114535 | 15 | 0 | 0.0 | 6.4 | 0.00 | 0.00 | 0.00 | 71 | 1014.7 |
| 20260507113028 | 15 | 26 | 0.0 | 6.4 | 0.00 | 0.00 | 0.00 | 71 | 1014.6 |
| 20260507111531 | 14 | 174 | 4.8 | 9.7 | 0.00 | 0.00 | 0.00 | 72 | 1014.6 |
| 20260507110042 | 15 | 147 | 1.6 | 12.9 | 0.00 | 0.00 | 0.00 | 73 | 1014.6 |
| 20260507104531 | 14 | 77 | 1.6 | 11.3 | 0.00 | 0.00 | 0.00 | 74 | 1014.6 |
| 20260507103032 | 13 | 136 | 4.8 | 11.3 | 0.00 | 0.00 | 0.00 | 74 | 1014.7 |
| 20260507101531 | 14 | 127 | 3.2 | 14.5 | 0.00 | 0.00 | 0.00 | 73 | 1014.7 |
| 20260507100034 | 13 | 105 | 4.8 | 12.9 | 0.00 | 0.00 | 0.00 | 74 | 1014.7 |
| 20260507094531 | 13 | 157 | 4.8 | 12.9 | 0.00 | 0.00 | 0.00 | 75 | 1014.6 |
| 20260507093032 | 13 | 162 | 4.8 | 16.1 | 0.00 | 0.00 | 0.00 | 76 | 1014.6 |
| 20260507091537 | 12 | 133 | 11.3 | 20.9 | 0.00 | 0.00 | 0.00 | 77 | 1014.5 |
| 20260507090037 | 12 | 121 | 6.4 | 17.7 | 0.00 | 0.00 | 0.00 | 78 | 1014.5 |
| 20260507084537 | 12 | 91 | 11.3 | 19.3 | 0.00 | 0.00 | 0.00 | 77 | 1014.5 |
| 20260507083037 | 12 | 158 | 8.0 | 16.1 | 0.00 | 0.00 | 0.00 | 79 | 1014.4 |
| 20260507081531 | 12 | 120 | 9.7 | 20.9 | 0.00 | 0.00 | 0.00 | 79 | 1014.3 |
| 20260507080030 | 11 | 136 | 11.3 | 20.9 | 0.00 | 0.00 | 0.00 | 80 | 1014.3 |
| 20260507074541 | 10 | 93 | 12.9 | 20.9 | 0.00 | 0.00 | 0.00 | 81 | 1014.3 |
| 20260507073030 | 10 | 115 | 11.3 | 20.9 | 0.00 | 0.00 | 0.00 | 82 | 1014.4 |
| 20260507071532 | 10 | 130 | 14.5 | 20.9 | 0.00 | 0.00 | 0.00 | 81 | 1014.3 |
| 20260507070030 | 10 | 128 | 16.1 | 29.0 | 0.00 | 0.00 | 0.00 | 81 | 1014.1 |
| 20260507064536 | 10 | 96 | 17.7 | 25.7 | 0.00 | 0.00 | 0.00 | 82 | 1014.1 |
| 20260507063034 | 10 | 107 | 14.5 | 22.5 | 0.00 | 0.00 | 0.00 | 81 | 1014.0 |
| 20260507061530 | 10 | 108 | 14.5 | 22.5 | 0.00 | 0.00 | 0.00 | 80 | 1014.0 |
| 20260507060028 | 10 | 109 | 12.9 | 22.5 | 0.00 | 0.00 | 0.00 | 80 | 1014.0 |
| 20260507054530 | 10 | 171 | 14.5 | 22.5 | 0.00 | 0.00 | 0.00 | 80 | 1013.9 |
| 20260507053032 | 10 | 108 | 14.5 | 24.1 | 0.00 | 0.00 | 0.00 | 80 | 1013.9 |
| 20260507051538 | 10 | 122 | 16.1 | 24.1 | 0.00 | 0.00 | 0.00 | 80 | 1013.8 |
| 20260507050037 | 10 | 93 | 14.5 | 22.5 | 0.00 | 0.00 | 0.00 | 80 | 1013.8 |
| 20260507044530 | 10 | 110 | 11.3 | 22.5 | 0.00 | 0.00 | 0.00 | 80 | 1013.8 |
| 20260507043030 | 10 | 110 | 8.0 | 22.5 | 0.00 | 0.00 | 0.00 | 80 | 1013.7 |
| 20260507041532 | 10 | 96 | 11.3 | 22.5 | 0.00 | 0.00 | 0.00 | 80 | 1013.8 |
| 20260507040030 | 10 | 100 | 11.3 | 20.9 | 0.00 | 0.00 | 0.00 | 80 | 1013.7 |
| 20260507034548 | 10 | 122 | 11.3 | 24.1 | 0.00 | 0.00 | 0.00 | 80 | 1013.7 |
| 20260507033039 | 10 | 130 | 12.9 | 22.5 | 0.00 | 0.00 | 0.00 | 79 | 1013.6 |
| 20260507031529 | 10 | 134 | 12.9 | 24.1 | 0.00 | 0.00 | 0.00 | 79 | 1013.7 |
| 20260507030030 | 10 | 122 | 9.7 | 20.9 | 0.00 | 0.00 | 0.00 | 78 | 1013.8 |